Printer-friendly version

IAU Minor Planet Center

Minor Planet Center

MPEC 2007-F55 : 2007 FO3

The following Minor Planet Electronic Circular may be linked-to from your own Web pages, but must not otherwise be redistributed electronically.


Read MPEC 2007-F54 Read MPEC 2007-F56


M.P.E.C. 2007-F55                                Issued 2007 Mar. 21, 16:07 UT

     The Minor Planet Electronic Circulars contain information on unusual
         minor planets and routine data on comets.  They are published
   on behalf of Commission 20 of the International Astronomical Union by the
          Minor Planet Center, Smithsonian Astrophysical Observatory,
                          Cambridge, MA 02138, U.S.A.

             Prepared using the Tamkin Foundation Computer Network

                              MPC@CFA.HARVARD.EDU
          URL http://cfa-www.harvard.edu/iau/mpc.html  ISSN 1523-6714

                                   2007 FO3

Observations:
     K07F03O* C2007 03 20.28110 11 18 28.58 +02 50 20.6          20.1 V EF055G96
     K07F03O  C2007 03 20.28833 11 18 26.60 +02 50 03.3          20.2 V EF055G96
     K07F03O  C2007 03 20.29559 11 18 24.62 +02 49 46.3          21.0 V EF055G96
     K07F03O  C2007 03 20.30288 11 18 22.57 +02 49 29.2          20.9 V EF055G96
     K07F03O  C2007 03 20.46568 11 17 38.24 +02 43 00.3          19.9 V EF055G96
     K07F03O  C2007 03 20.46624 11 17 38.06 +02 42 59.4          20.4 V EF055G96
     K07F03O  C2007 03 20.46677 11 17 37.85 +02 42 56.3          21.5 V EF055G96
     K07F03O  C2007 03 20.46730 11 17 37.80 +02 42 56.3          20.5 V EF055G96
     K07F03O  C2007 03 20.54763 11 17 20.56 +02 41 22.0          20.1 R EF055474
     K07F03O  C2007 03 20.54994 11 17 19.94 +02 41 16.2          20.1 R EF055474
     K07F03O  C2007 03 20.55353 11 17 18.98 +02 41 07.3          19.8 R EF055474
     K07F03O  C2007 03 21.06321 11 15 06.64 +02 18 11.1                 EF055J95
     K07F03O  C2007 03 21.06997 11 15 04.84 +02 17 53.2                 EF055J95
     K07F03O  C2007 03 21.07748 11 15 02.64 +02 17 33.1          20.3 R EF055J95
     K07F03O  C2007 03 21.20584 11 14 32.67 +02 12 28.7          20.4 V EF055G96
     K07F03O  C2007 03 21.20653 11 14 32.46 +02 12 26.9          20.3 V EF055G96
     K07F03O  C2007 03 21.20725 11 14 32.28 +02 12 24.9          20.4 V EF055G96
     K07F03O  C2007 03 21.20796 11 14 32.06 +02 12 23.0          20.2 V EF055G96

Observer details:
474 Mount John Observatory, Lake Tekapo.  Observer A. C. Gilmore.  1.0-m f/7.7
    reflector + CCD.
G96 Mt. Lemmon Survey.  Observer A. R. Gibbs.  Measurers E. C. Beshore,
    E. J. Christensen, G. J. Garradd, A. R. Gibbs, A. D. Grauer, R. E. Hill,
    R. A. Kowalski, S. M. Larson, R. H. McNaught.  1.5-m reflector + CCD.
J95 Great Shefford.  Observer P. Birtwhistle.  0.40-m f/6.0 Schmidt-Cassegrain
    + CCD.

Orbital elements:
2007 FO3                                                 Earth MOID = 0.0398 AU
Epoch 2007 Apr. 10.0 TT = JDT 2454200.5                 MPC
M 327.21261              (2000.0)            P               Q
n   0.67093947     Peri.  261.70634     -0.19850028     +0.98008189
a   1.2922518      Node   356.82494     -0.85036308     -0.17531198
e   0.3146864      Incl.    6.31545     -0.48731948     -0.09330162
P   1.47           H   24.4           G   0.15           U   9
Residuals in seconds of arc
070320 G96  0.0   0.2+    070320 G96  1.6-  1.1-    070321 J95  1.1+  0.0
070320 G96  0.2+  0.1-    070320 G96  0.2-  0.2+    070321 J95  0.2-  1.1-
070320 G96  0.6+  0.0     070320 474  0.1-  0.1+    070321 G96  0.6-  0.5+
070320 G96  0.1+  0.2+    070320 474  0.2+  0.1-    070321 G96  0.7-  0.5+
070320 G96  0.1-  0.3+    070320 474  0.7+  0.3-    070321 G96  0.3-  0.3+
070320 G96  0.5-  0.7+    070321 J95  0.5-  0.7+    070321 G96  0.4-  0.2+

Ephemeris:
2007 FO3                 a,e,i = 1.29, 0.31, 6                   q = 0.8856
Date    TT    R. A. (2000) Decl.     Delta      r     Elong.  Phase     V
2007 03 21    11 15.42   +02 21.9    0.108    1.102   168.7    10.2    20.4
2007 03 23    11 05.96   +00 50.1    0.0991   1.092   164.7    13.9    20.4
2007 03 25    10 54.87   -01 00.0    0.0905   1.083   160.2    18.2    20.3
2007 03 27    10 41.77   -03 12.6    0.0824   1.073   155.1    23.1    20.2
2007 03 29    10 26.18   -05 51.9    0.0749   1.063   149.3    28.6    20.2
2007 03 31    10 07.47   -09 02.2    0.0681   1.054   142.8    35.0    20.1
2007 04 02    09 44.87   -12 46.3    0.0622   1.044   135.2    42.4    20.1
2007 04 04    09 17.51   -17 02.6    0.0573   1.035   126.6    50.8    20.1
2007 04 06    08 44.60   -21 41.3    0.0537   1.026   117.0    60.3    20.3
2007 04 08    08 05.84   -26 20.7    0.0515   1.017   106.6    70.6    20.5
2007 04 10    07 22.01   -30 29.2    0.0510   1.008    95.9    81.2    20.8
2007 04 12    06 35.44   -33 36.6    0.0521   1.000    85.5    91.5    21.2
2007 04 14    05 49.53   -35 28.1    0.0547   0.991    76.1   100.8    21.7
2007 04 16    05 07.42   -36 09.4    0.0587   0.983    67.9   108.9    22.3
2007 04 18    04 30.88   -35 58.3    0.0638   0.975    61.2   115.5    22.9
2007 04 20    04 00.23   -35 13.9    0.0697   0.967    55.8   120.7    23.4

Kyle E. Smalley              (C) Copyright 2007 MPC           M.P.E.C. 2007-F55

Read MPEC 2007-F54 Read MPEC 2007-F56


Our Web policy. Index to the CBAT/MPC/ICQ pages.


Valid HTML 4.01!